Location: Saint-Palais-sur-Mer
(45.6429°N, 1.0859°W)
Time: 01:02:11
(UTC+01:00)

Tiros 1 despin weight - Pass Details

Date: 13 February 2026
Orbit: 556 x 593 km, 48.2° (Epoch: 13 March)

Event Time Altitude Azimuth Distance (km) Brightness Sun altitude
Rises 21:14:32 0° 282° (WNW) 2,734 ? -29.5°
Reaches altitude 10° 21:16:48 10° 286° (WNW) 1,840 ? -29.9°
Enters shadow 21:18:59 29° 295° (WNW) 1,032 ? -30.3°
Maximum altitude 21:20:58 65° 8° (N) 617 - -30.6°
Drops below altitude 10° 21:25:10 10° 91° (E) 1,851 - -31.3°
Sets 21:27:27 0° 94° (E) 2,752 - -31.7°
